Location: Recife
(8.0585°S, 34.8848°W)
Time: 11:52:46
(UTC-03:00)

Vanguard 2 Rocket - Pass Details

Date: 22 April 2026
Orbit: 553 x 3286 km, 32.9° (Epoch: 7 May)

Event Time Altitude Azimuth Distance (km) Brightness Sun altitude
Rises 15:20:34 0° 262° (W) 7,194 12.5 26.4°
Reaches altitude 10° 15:26:43 10° 272° (W) 6,233 12.8 24.9°
Maximum altitude 15:41:42 27° 321° (NW) 4,597 11.6 21.4°
Drops below altitude 10° 15:54:01 10° 13° (NNE) 5,027 10.8 18.5°
Sets 15:58:23 0° 26° (NNE) 5,627 10.8 17.4°
